Year,Month,Day,Hour,Minute,Value (Times are PST for temperature in C)
2021,06,26,00,00,22.90
2021,06,26,00,01,22.90
2021,06,26,00,02,22.80
2021,06,26,00,03,22.80
2021,06,26,00,04,22.80
2021,06,26,00,05,22.70
2021,06,26,00,06,22.70
2021,06,26,00,07,22.70
2021,06,26,00,08,22.70
2021,06,26,00,09,22.70
2021,06,26,00,10,22.70
2021,06,26,00,11,22.60
2021,06,26,00,12,22.60
2021,06,26,00,13,22.60
2021,06,26,00,14,22.60
2021,06,26,00,15,22.60
2021,06,26,00,16,22.50
2021,06,26,00,17,22.50
2021,06,26,00,18,22.50
2021,06,26,00,19,22.40
2021,06,26,00,20,22.40
2021,06,26,00,21,22.40
2021,06,26,00,22,22.40
2021,06,26,00,23,22.30
2021,06,26,00,24,22.30
2021,06,26,00,25,22.30
2021,06,26,00,26,22.30
2021,06,26,00,27,22.30
2021,06,26,00,28,22.20
2021,06,26,00,29,22.20
2021,06,26,00,30,22.20
2021,06,26,00,31,22.20
2021,06,26,00,32,22.20
2021,06,26,00,33,22.10
2021,06,26,00,34,22.10
2021,06,26,00,35,22.10
2021,06,26,00,36,22.10
2021,06,26,00,37,22.10
2021,06,26,00,38,22.10
2021,06,26,00,39,22.10
2021,06,26,00,40,22.10
2021,06,26,00,41,22.10
2021,06,26,00,42,22.10
2021,06,26,00,43,22.00
2021,06,26,00,44,22.00
2021,06,26,00,45,22.00
2021,06,26,00,46,22.00
2021,06,26,00,47,21.90
2021,06,26,00,48,21.90
2021,06,26,00,49,21.90
2021,06,26,00,50,21.90
2021,06,26,00,51,21.90
2021,06,26,00,52,21.80
2021,06,26,00,53,21.80
2021,06,26,00,54,21.80
2021,06,26,00,55,21.80
2021,06,26,00,56,21.80
2021,06,26,00,57,21.70
2021,06,26,00,58,21.70
2021,06,26,00,59,21.70
2021,06,26,01,00,21.60
2021,06,26,01,01,21.60
2021,06,26,01,02,21.60
2021,06,26,01,03,21.50
2021,06,26,01,04,21.50
2021,06,26,01,05,21.50
2021,06,26,01,06,21.40
2021,06,26,01,07,21.40
2021,06,26,01,08,21.40
2021,06,26,01,09,21.30
2021,06,26,01,10,21.30
2021,06,26,01,11,21.30
2021,06,26,01,12,21.30
2021,06,26,01,13,21.30
2021,06,26,01,14,21.30
2021,06,26,01,15,21.30
2021,06,26,01,16,21.30
2021,06,26,01,17,21.30
2021,06,26,01,18,21.30
2021,06,26,01,19,21.30
2021,06,26,01,20,21.30
2021,06,26,01,21,21.30
2021,06,26,01,22,21.30
2021,06,26,01,23,21.30
2021,06,26,01,24,21.30
2021,06,26,01,25,21.30
2021,06,26,01,26,21.20
2021,06,26,01,27,21.20
2021,06,26,01,28,21.20
2021,06,26,01,29,21.20
2021,06,26,01,30,21.20
2021,06,26,01,31,21.20
2021,06,26,01,32,21.10
2021,06,26,01,33,21.10
2021,06,26,01,34,21.10
2021,06,26,01,35,21.10
2021,06,26,01,36,21.10
2021,06,26,01,37,21.10
2021,06,26,01,38,21.10
2021,06,26,01,39,21.10
2021,06,26,01,40,21.10
2021,06,26,01,41,21.00
2021,06,26,01,42,21.10
2021,06,26,01,43,21.10
2021,06,26,01,44,21.10
2021,06,26,01,45,21.10
2021,06,26,01,46,21.00
2021,06,26,01,47,21.00
2021,06,26,01,48,20.90
2021,06,26,01,49,20.90
2021,06,26,01,50,20.90
2021,06,26,01,51,20.80
2021,06,26,01,52,20.80
2021,06,26,01,53,20.80
2021,06,26,01,54,20.70
2021,06,26,01,55,20.70
2021,06,26,01,56,20.70
2021,06,26,01,57,20.60
2021,06,26,01,58,20.60
2021,06,26,01,59,20.60
2021,06,26,02,00,20.50
2021,06,26,02,01,20.50
2021,06,26,02,02,20.40
2021,06,26,02,03,20.40
2021,06,26,02,04,20.40
2021,06,26,02,05,20.40
2021,06,26,02,06,20.40
2021,06,26,02,07,20.40
2021,06,26,02,08,20.40
2021,06,26,02,09,20.40
2021,06,26,02,10,20.40
2021,06,26,02,11,20.40
2021,06,26,02,12,20.50
2021,06,26,02,13,20.50
2021,06,26,02,14,20.50
2021,06,26,02,15,20.50
2021,06,26,02,16,20.50
2021,06,26,02,17,20.50
2021,06,26,02,18,20.40
2021,06,26,02,19,20.40
2021,06,26,02,20,20.40
2021,06,26,02,21,20.40
2021,06,26,02,22,20.40
2021,06,26,02,23,20.40
2021,06,26,02,24,20.40
2021,06,26,02,25,20.40
2021,06,26,02,26,20.40
2021,06,26,02,27,20.40
2021,06,26,02,28,20.40
2021,06,26,02,29,20.30
2021,06,26,02,30,20.30
2021,06,26,02,31,20.30
2021,06,26,02,32,20.30
2021,06,26,02,33,20.30
2021,06,26,02,34,20.30
2021,06,26,02,35,20.40
2021,06,26,02,36,20.40
2021,06,26,02,37,20.40
2021,06,26,02,38,20.40
2021,06,26,02,39,20.40
2021,06,26,02,40,20.40
2021,06,26,02,41,20.40
2021,06,26,02,42,20.30
2021,06,26,02,43,20.30
2021,06,26,02,44,20.30
2021,06,26,02,45,20.30
2021,06,26,02,46,20.30
2021,06,26,02,47,20.30
2021,06,26,02,48,20.30
2021,06,26,02,49,20.30
2021,06,26,02,50,20.20
2021,06,26,02,51,20.20
2021,06,26,02,52,20.20
2021,06,26,02,53,20.20
2021,06,26,02,54,20.20
2021,06,26,02,55,20.20
2021,06,26,02,56,20.20
2021,06,26,02,57,20.20
2021,06,26,02,58,20.20
2021,06,26,02,59,20.20
2021,06,26,03,00,20.20
2021,06,26,03,01,20.20
2021,06,26,03,02,20.20
2021,06,26,03,03,20.10
2021,06,26,03,04,20.10
2021,06,26,03,05,20.10
2021,06,26,03,06,20.00
2021,06,26,03,07,20.00
2021,06,26,03,08,19.90
2021,06,26,03,09,19.80
2021,06,26,03,10,19.80
2021,06,26,03,11,19.80
2021,06,26,03,12,19.70
2021,06,26,03,13,19.70
2021,06,26,03,14,19.70
2021,06,26,03,15,19.70
2021,06,26,03,16,19.70
2021,06,26,03,17,19.70
2021,06,26,03,18,19.60
2021,06,26,03,19,19.60
2021,06,26,03,20,19.60
2021,06,26,03,21,19.60
2021,06,26,03,22,19.60
2021,06,26,03,23,19.70
2021,06,26,03,24,19.70
2021,06,26,03,25,19.70
2021,06,26,03,26,19.70
2021,06,26,03,27,19.70
2021,06,26,03,28,19.70
2021,06,26,03,29,19.70
2021,06,26,03,30,19.60
2021,06,26,03,31,19.60
2021,06,26,03,32,19.60
2021,06,26,03,33,19.60
2021,06,26,03,34,19.60
2021,06,26,03,35,19.60
2021,06,26,03,36,19.60
2021,06,26,03,37,19.70
2021,06,26,03,38,19.70
2021,06,26,03,39,19.70
2021,06,26,03,40,19.70
2021,06,26,03,41,19.70
2021,06,26,03,42,19.70
2021,06,26,03,43,19.80
2021,06,26,03,44,19.80
2021,06,26,03,45,19.80
2021,06,26,03,46,19.70
2021,06,26,03,47,19.70
2021,06,26,03,48,19.70
2021,06,26,03,49,19.70
2021,06,26,03,50,19.70
2021,06,26,03,51,19.70
2021,06,26,03,52,19.60
2021,06,26,03,53,19.60
2021,06,26,03,54,19.60
2021,06,26,03,55,19.60
2021,06,26,03,56,19.60
2021,06,26,03,57,19.70
2021,06,26,03,58,19.70
2021,06,26,03,59,19.60
2021,06,26,04,00,19.60
2021,06,26,04,01,19.60
2021,06,26,04,02,19.60
2021,06,26,04,03,19.60
2021,06,26,04,04,19.50
2021,06,26,04,05,19.50
2021,06,26,04,06,19.50
2021,06,26,04,07,19.40
2021,06,26,04,08,19.40
2021,06,26,04,09,19.40
2021,06,26,04,10,19.40
2021,06,26,04,11,19.30
2021,06,26,04,12,19.30
2021,06,26,04,13,19.30
2021,06,26,04,14,19.20
2021,06,26,04,15,19.20
2021,06,26,04,16,19.20
2021,06,26,04,17,19.10
2021,06,26,04,18,19.10
2021,06,26,04,19,19.10
2021,06,26,04,20,19.10
2021,06,26,04,21,19.10
2021,06,26,04,22,19.10
2021,06,26,04,23,19.10
2021,06,26,04,24,19.00
2021,06,26,04,25,19.00
2021,06,26,04,26,19.00
2021,06,26,04,27,19.00
2021,06,26,04,28,19.00
2021,06,26,04,29,19.00
2021,06,26,04,30,19.00
2021,06,26,04,31,19.00
2021,06,26,04,32,19.10
2021,06,26,04,33,19.10
2021,06,26,04,34,19.10
2021,06,26,04,35,19.00
2021,06,26,04,36,19.00
2021,06,26,04,37,19.00
2021,06,26,04,38,19.00
2021,06,26,04,39,19.00
2021,06,26,04,40,19.00
2021,06,26,04,41,18.90
2021,06,26,04,42,18.90
2021,06,26,04,43,18.90
2021,06,26,04,44,18.90
2021,06,26,04,45,18.90
2021,06,26,04,46,18.90
2021,06,26,04,47,18.90
2021,06,26,04,48,18.90
2021,06,26,04,49,18.90
2021,06,26,04,50,18.90
2021,06,26,04,51,18.90
2021,06,26,04,52,18.90
2021,06,26,04,53,18.90
2021,06,26,04,54,18.80
2021,06,26,04,55,18.80
2021,06,26,04,56,18.80
2021,06,26,04,57,18.70
2021,06,26,04,58,18.70
2021,06,26,04,59,18.70
2021,06,26,05,00,18.60
2021,06,26,05,01,18.60
2021,06,26,05,02,18.60
2021,06,26,05,03,18.50
2021,06,26,05,04,18.50
2021,06,26,05,05,18.50
2021,06,26,05,06,18.50
2021,06,26,05,07,18.50
2021,06,26,05,08,18.50
2021,06,26,05,09,18.50
2021,06,26,05,10,18.50
2021,06,26,05,11,18.50
2021,06,26,05,12,18.50
2021,06,26,05,13,18.50
2021,06,26,05,14,18.50
2021,06,26,05,15,18.50
2021,06,26,05,16,18.50
2021,06,26,05,17,18.50
2021,06,26,05,18,18.50
2021,06,26,05,19,18.50
2021,06,26,05,20,18.50
2021,06,26,05,21,18.50
2021,06,26,05,22,18.40
2021,06,26,05,23,18.40
2021,06,26,05,24,18.40
2021,06,26,05,25,18.40
2021,06,26,05,26,18.40
2021,06,26,05,27,18.40
2021,06,26,05,28,18.30
2021,06,26,05,29,18.30
2021,06,26,05,30,18.30
2021,06,26,05,31,18.30
2021,06,26,05,32,18.40
2021,06,26,05,33,18.40
2021,06,26,05,34,18.40
2021,06,26,05,35,18.40
2021,06,26,05,36,18.40
2021,06,26,05,37,18.40
2021,06,26,05,38,18.40
2021,06,26,05,39,18.40
2021,06,26,05,40,18.30
2021,06,26,05,41,18.40
2021,06,26,05,42,18.40
2021,06,26,05,43,18.40
2021,06,26,05,44,18.40
2021,06,26,05,45,18.40
2021,06,26,05,46,18.40
2021,06,26,05,47,18.40
2021,06,26,05,48,18.50
2021,06,26,05,49,18.50
2021,06,26,05,50,18.60
2021,06,26,05,51,18.60
2021,06,26,05,52,18.60
2021,06,26,05,53,18.60
2021,06,26,05,54,18.70
2021,06,26,05,55,18.70
2021,06,26,05,56,18.70
2021,06,26,05,57,18.80
2021,06,26,05,58,18.80
2021,06,26,05,59,18.80
2021,06,26,06,00,18.90
2021,06,26,06,01,18.90
2021,06,26,06,02,19.00
2021,06,26,06,03,19.00
2021,06,26,06,04,19.10
2021,06,26,06,05,19.20
2021,06,26,06,06,19.20
2021,06,26,06,07,19.30
2021,06,26,06,08,19.30
2021,06,26,06,09,19.20
2021,06,26,06,10,19.20
2021,06,26,06,11,19.20
2021,06,26,06,12,19.20
2021,06,26,06,13,19.20
2021,06,26,06,14,19.10
2021,06,26,06,15,19.10
2021,06,26,06,16,19.10
2021,06,26,06,17,19.10
2021,06,26,06,18,19.10
2021,06,26,06,19,19.10
2021,06,26,06,20,19.10
2021,06,26,06,21,19.10
2021,06,26,06,22,19.20
2021,06,26,06,23,19.30
2021,06,26,06,24,19.30
2021,06,26,06,25,19.40
2021,06,26,06,26,19.50
2021,06,26,06,27,19.60
2021,06,26,06,28,19.70
2021,06,26,06,29,19.90
2021,06,26,06,30,20.00
2021,06,26,06,31,20.20
2021,06,26,06,32,20.40
2021,06,26,06,33,20.50
2021,06,26,06,34,20.70
2021,06,26,06,35,20.90
2021,06,26,06,36,21.10
2021,06,26,06,37,21.30
2021,06,26,06,38,21.50
2021,06,26,06,39,21.70
2021,06,26,06,40,21.90
2021,06,26,06,41,22.00
2021,06,26,06,42,22.10
2021,06,26,06,43,22.30
2021,06,26,06,44,22.40
2021,06,26,06,45,22.50
2021,06,26,06,46,22.70
2021,06,26,06,47,22.80
2021,06,26,06,48,22.90
2021,06,26,06,49,23.00
2021,06,26,06,50,23.10
2021,06,26,06,51,23.20
2021,06,26,06,52,23.30
2021,06,26,06,53,23.30
2021,06,26,06,54,23.40
2021,06,26,06,55,23.50
2021,06,26,06,56,23.60
2021,06,26,06,57,23.70
2021,06,26,06,58,23.70
2021,06,26,06,59,23.80
2021,06,26,07,00,23.80
2021,06,26,07,01,23.90
2021,06,26,07,02,24.00
2021,06,26,07,03,24.10
2021,06,26,07,04,24.10
2021,06,26,07,05,24.20
2021,06,26,07,06,24.30
2021,06,26,07,07,24.30
2021,06,26,07,08,24.40
2021,06,26,07,09,24.40
2021,06,26,07,10,24.50
2021,06,26,07,11,24.50
2021,06,26,07,12,24.60
2021,06,26,07,13,24.60
2021,06,26,07,14,24.60
2021,06,26,07,15,24.60
2021,06,26,07,16,24.60
2021,06,26,07,17,24.60
2021,06,26,07,18,24.60
2021,06,26,07,19,24.60
2021,06,26,07,20,24.60
2021,06,26,07,21,24.70
2021,06,26,07,22,24.70
2021,06,26,07,23,24.70
2021,06,26,07,24,24.70
2021,06,26,07,25,24.70
2021,06,26,07,26,24.70
2021,06,26,07,27,24.70
2021,06,26,07,28,24.70
2021,06,26,07,29,24.70
2021,06,26,07,30,24.70
2021,06,26,07,31,24.70
2021,06,26,07,32,24.80
2021,06,26,07,33,24.80
2021,06,26,07,34,24.80
2021,06,26,07,35,24.80
2021,06,26,07,36,24.90
2021,06,26,07,37,24.90
2021,06,26,07,38,24.90
2021,06,26,07,39,25.00
2021,06,26,07,40,25.00
2021,06,26,07,41,25.10
2021,06,26,07,42,25.10
2021,06,26,07,43,25.20
2021,06,26,07,44,25.30
2021,06,26,07,45,25.30
2021,06,26,07,46,25.40
2021,06,26,07,47,25.40
2021,06,26,07,48,25.50
2021,06,26,07,49,25.60
2021,06,26,07,50,25.60
2021,06,26,07,51,25.70
2021,06,26,07,52,25.80
2021,06,26,07,53,25.90
2021,06,26,07,54,25.90
2021,06,26,07,55,25.90
2021,06,26,07,56,26.00
2021,06,26,07,57,26.00
2021,06,26,07,58,26.10
2021,06,26,07,59,26.10
2021,06,26,08,00,26.20
2021,06,26,08,01,26.30
2021,06,26,08,02,26.40
2021,06,26,08,03,26.40
2021,06,26,08,04,26.50
2021,06,26,08,05,26.60
2021,06,26,08,06,26.60
2021,06,26,08,07,26.60
2021,06,26,08,08,26.70
2021,06,26,08,09,26.70
2021,06,26,08,10,26.70
2021,06,26,08,11,26.70
2021,06,26,08,12,26.80
2021,06,26,08,13,26.80
2021,06,26,08,14,26.80
2021,06,26,08,15,26.90
2021,06,26,08,16,26.90
2021,06,26,08,17,26.90
2021,06,26,08,18,27.00
2021,06,26,08,19,27.10
2021,06,26,08,20,27.00
2021,06,26,08,21,27.00
2021,06,26,08,22,26.90
2021,06,26,08,23,26.90
2021,06,26,08,24,26.90
2021,06,26,08,25,27.00
2021,06,26,08,26,27.00
2021,06,26,08,27,27.00
2021,06,26,08,28,27.00
2021,06,26,08,29,27.10
2021,06,26,08,30,27.10
2021,06,26,08,31,27.10
2021,06,26,08,32,27.00
2021,06,26,08,33,27.00
2021,06,26,08,34,26.90
2021,06,26,08,35,26.90
2021,06,26,08,36,26.80
2021,06,26,08,37,26.80
2021,06,26,08,38,26.70
2021,06,26,08,39,26.70
2021,06,26,08,40,26.70
2021,06,26,08,41,26.70
2021,06,26,08,42,26.70
2021,06,26,08,43,26.60
2021,06,26,08,44,26.60
2021,06,26,08,45,26.70
2021,06,26,08,46,26.70
2021,06,26,08,47,26.80
2021,06,26,08,48,26.90
2021,06,26,08,49,27.00
2021,06,26,08,50,27.10
2021,06,26,08,51,27.10
2021,06,26,08,52,27.10
2021,06,26,08,53,27.10
2021,06,26,08,54,27.10
2021,06,26,08,55,27.20
2021,06,26,08,56,27.20
2021,06,26,08,57,27.20
2021,06,26,08,58,27.10
2021,06,26,08,59,27.10
2021,06,26,09,00,27.10
2021,06,26,09,01,27.10
2021,06,26,09,02,27.10
2021,06,26,09,03,27.10
2021,06,26,09,04,27.10
2021,06,26,09,05,27.20
2021,06,26,09,06,27.20
2021,06,26,09,07,27.30
2021,06,26,09,08,27.40
2021,06,26,09,09,27.50
2021,06,26,09,10,27.60
2021,06,26,09,11,27.60
2021,06,26,09,12,27.70
2021,06,26,09,13,27.80
2021,06,26,09,14,27.90
2021,06,26,09,15,28.00
2021,06,26,09,16,28.10
2021,06,26,09,17,28.10
2021,06,26,09,18,28.20
2021,06,26,09,19,28.30
2021,06,26,09,20,28.40
2021,06,26,09,21,28.40
2021,06,26,09,22,28.50
2021,06,26,09,23,28.60
2021,06,26,09,24,28.60
2021,06,26,09,25,28.60
2021,06,26,09,26,28.60
2021,06,26,09,27,28.50
2021,06,26,09,28,28.40
2021,06,26,09,29,28.30
2021,06,26,09,30,28.30
2021,06,26,09,31,28.30
2021,06,26,09,32,28.30
2021,06,26,09,33,28.30
2021,06,26,09,34,28.20
2021,06,26,09,35,28.20
2021,06,26,09,36,28.10
2021,06,26,09,37,28.10
2021,06,26,09,38,28.10
2021,06,26,09,39,28.10
2021,06,26,09,40,28.20
2021,06,26,09,41,28.30
2021,06,26,09,42,28.40
2021,06,26,09,43,28.50
2021,06,26,09,44,28.60
2021,06,26,09,45,28.60
2021,06,26,09,46,28.60
2021,06,26,09,47,28.60
2021,06,26,09,48,28.60
2021,06,26,09,49,28.60
2021,06,26,09,50,28.60
2021,06,26,09,51,28.60
2021,06,26,09,52,28.60
2021,06,26,09,53,28.70
2021,06,26,09,54,28.80
2021,06,26,09,55,28.80
2021,06,26,09,56,28.90
2021,06,26,09,57,28.90
2021,06,26,09,58,28.90
2021,06,26,09,59,28.80
2021,06,26,10,00,28.80
2021,06,26,10,01,28.90
2021,06,26,10,02,28.90
2021,06,26,10,03,28.80
2021,06,26,10,04,28.70
2021,06,26,10,05,28.50
2021,06,26,10,06,28.40
2021,06,26,10,07,28.40
2021,06,26,10,08,28.30
2021,06,26,10,09,28.40
2021,06,26,10,10,28.40
2021,06,26,10,11,28.50
2021,06,26,10,12,28.60
2021,06,26,10,13,28.70
2021,06,26,10,14,28.60
2021,06,26,10,15,28.50
2021,06,26,10,16,28.50
2021,06,26,10,17,28.60
2021,06,26,10,18,28.60
2021,06,26,10,19,28.70
2021,06,26,10,20,28.80
2021,06,26,10,21,28.80
2021,06,26,10,22,28.90
2021,06,26,10,23,28.90
2021,06,26,10,24,28.80
2021,06,26,10,25,28.80
2021,06,26,10,26,28.80
2021,06,26,10,27,28.90
2021,06,26,10,28,28.90
2021,06,26,10,29,28.90
2021,06,26,10,30,28.90
2021,06,26,10,31,28.90
2021,06,26,10,32,28.90
2021,06,26,10,33,29.00
2021,06,26,10,34,29.20
2021,06,26,10,35,29.30
2021,06,26,10,36,29.50
2021,06,26,10,37,29.60
2021,06,26,10,38,29.70
2021,06,26,10,39,29.70
2021,06,26,10,40,29.80
2021,06,26,10,41,29.90
2021,06,26,10,42,30.10
2021,06,26,10,43,30.20
2021,06,26,10,44,30.20
2021,06,26,10,45,30.20
2021,06,26,10,46,30.10
2021,06,26,10,47,30.00
2021,06,26,10,48,29.80
2021,06,26,10,49,29.70
2021,06,26,10,50,29.60
2021,06,26,10,51,29.60
2021,06,26,10,52,29.60
2021,06,26,10,53,29.60
2021,06,26,10,54,29.60
2021,06,26,10,55,29.60
2021,06,26,10,56,29.60
2021,06,26,10,57,29.60
2021,06,26,10,58,29.60
2021,06,26,10,59,29.60
2021,06,26,11,00,29.60
2021,06,26,11,01,29.60
2021,06,26,11,02,29.60
2021,06,26,11,03,29.70
2021,06,26,11,04,29.70
2021,06,26,11,05,29.70
2021,06,26,11,06,29.80
2021,06,26,11,07,29.80
2021,06,26,11,08,29.90
2021,06,26,11,09,29.90
2021,06,26,11,10,29.90
2021,06,26,11,11,29.90
2021,06,26,11,12,29.80
2021,06,26,11,13,29.80
2021,06,26,11,14,29.80
2021,06,26,11,15,29.90
2021,06,26,11,16,30.00
2021,06,26,11,17,30.10
2021,06,26,11,18,30.30
2021,06,26,11,19,30.30
2021,06,26,11,20,30.40
2021,06,26,11,21,30.40
2021,06,26,11,22,30.30
2021,06,26,11,23,30.40
2021,06,26,11,24,30.50
2021,06,26,11,25,30.50
2021,06,26,11,26,30.60
2021,06,26,11,27,30.70
2021,06,26,11,28,30.70
2021,06,26,11,29,30.70
2021,06,26,11,30,30.70
2021,06,26,11,31,30.60
2021,06,26,11,32,30.60
2021,06,26,11,33,30.50
2021,06,26,11,34,30.60
2021,06,26,11,35,30.70
2021,06,26,11,36,30.70
2021,06,26,11,37,30.70
2021,06,26,11,38,30.70
2021,06,26,11,39,30.80
2021,06,26,11,40,30.80
2021,06,26,11,41,30.80
2021,06,26,11,42,30.80
2021,06,26,11,43,30.90
2021,06,26,11,44,30.90
2021,06,26,11,45,30.90
2021,06,26,11,46,30.90
2021,06,26,11,47,30.90
2021,06,26,11,48,30.90
2021,06,26,11,49,30.90
2021,06,26,11,50,30.90
2021,06,26,11,51,30.90
2021,06,26,11,52,30.90
2021,06,26,11,53,30.90
2021,06,26,11,54,30.90
2021,06,26,11,55,30.80
2021,06,26,11,56,30.80
2021,06,26,11,57,30.80
2021,06,26,11,58,30.70
2021,06,26,11,59,30.70
2021,06,26,12,00,30.70
2021,06,26,12,01,30.80
2021,06,26,12,02,30.80
2021,06,26,12,03,30.80
2021,06,26,12,04,30.90
2021,06,26,12,05,30.90
2021,06,26,12,06,30.90
2021,06,26,12,07,30.90
2021,06,26,12,08,30.80
2021,06,26,12,09,30.80
2021,06,26,12,10,30.80
2021,06,26,12,11,30.80
2021,06,26,12,12,30.80
2021,06,26,12,13,30.80
2021,06,26,12,14,30.80
2021,06,26,12,15,30.80
2021,06,26,12,16,30.90
2021,06,26,12,17,30.90
2021,06,26,12,18,30.90
2021,06,26,12,19,30.90
2021,06,26,12,20,30.80
2021,06,26,12,21,30.90
2021,06,26,12,22,31.00
2021,06,26,12,23,31.00
2021,06,26,12,24,31.10
2021,06,26,12,25,31.10
2021,06,26,12,26,31.10
2021,06,26,12,27,31.20
2021,06,26,12,28,31.20
2021,06,26,12,29,31.20
2021,06,26,12,30,31.20
2021,06,26,12,31,31.20
2021,06,26,12,32,31.20
2021,06,26,12,33,31.30
2021,06,26,12,34,31.30
2021,06,26,12,35,31.40
2021,06,26,12,36,31.40
2021,06,26,12,37,31.40
2021,06,26,12,38,31.40
2021,06,26,12,39,31.50
2021,06,26,12,40,31.70
2021,06,26,12,41,31.90
2021,06,26,12,42,32.10
2021,06,26,12,43,32.20
2021,06,26,12,44,32.40
2021,06,26,12,45,32.40
2021,06,26,12,46,32.50
2021,06,26,12,47,32.50
2021,06,26,12,48,32.50
2021,06,26,12,49,32.40
2021,06,26,12,50,32.40
2021,06,26,12,51,32.30
2021,06,26,12,52,32.30
2021,06,26,12,53,32.30
2021,06,26,12,54,32.30
2021,06,26,12,55,32.30
2021,06,26,12,56,32.40
2021,06,26,12,57,32.50
2021,06,26,12,58,32.70
2021,06,26,12,59,32.90
2021,06,26,13,00,33.10
2021,06,26,13,01,33.30
2021,06,26,13,02,33.40
2021,06,26,13,03,33.50
2021,06,26,13,04,33.70
2021,06,26,13,05,33.80
2021,06,26,13,06,33.90
2021,06,26,13,07,33.80
2021,06,26,13,08,33.80
2021,06,26,13,09,33.90
2021,06,26,13,10,33.80
2021,06,26,13,11,33.60
2021,06,26,13,12,33.60
2021,06,26,13,13,33.60
2021,06,26,13,14,33.40
2021,06,26,13,15,33.30
2021,06,26,13,16,33.30
2021,06,26,13,17,33.20
2021,06,26,13,18,33.30
2021,06,26,13,19,33.40
2021,06,26,13,20,33.50
2021,06,26,13,21,33.70
2021,06,26,13,22,33.90
2021,06,26,13,23,34.10
2021,06,26,13,24,34.20
2021,06,26,13,25,34.20
2021,06,26,13,26,34.10
2021,06,26,13,27,34.10
2021,06,26,13,28,34.10
2021,06,26,13,29,34.10
2021,06,26,13,30,34.00
2021,06,26,13,31,34.00
2021,06,26,13,32,34.10
2021,06,26,13,33,34.20
2021,06,26,13,34,34.20
2021,06,26,13,35,34.20
2021,06,26,13,36,34.30
2021,06,26,13,37,34.30
2021,06,26,13,38,34.30
2021,06,26,13,39,34.30
2021,06,26,13,40,34.30
2021,06,26,13,41,34.40
2021,06,26,13,42,34.50
2021,06,26,13,43,34.60
2021,06,26,13,44,34.60
2021,06,26,13,45,34.70
2021,06,26,13,46,34.70
2021,06,26,13,47,34.70
2021,06,26,13,48,34.70
2021,06,26,13,49,34.60
2021,06,26,13,50,34.50
2021,06,26,13,51,34.40
2021,06,26,13,52,34.40
2021,06,26,13,53,34.40
2021,06,26,13,54,34.40
2021,06,26,13,55,34.40
2021,06,26,13,56,34.50
2021,06,26,13,57,34.60
2021,06,26,13,58,34.70
2021,06,26,13,59,34.70
2021,06,26,14,00,34.70
2021,06,26,14,01,34.60
2021,06,26,14,02,34.50
2021,06,26,14,03,34.30
2021,06,26,14,04,34.00
2021,06,26,14,05,33.80
2021,06,26,14,06,33.60
2021,06,26,14,07,33.50
2021,06,26,14,08,33.40
2021,06,26,14,09,33.30
2021,06,26,14,10,33.30
2021,06,26,14,11,33.40
2021,06,26,14,12,33.40
2021,06,26,14,13,33.50
2021,06,26,14,14,33.50
2021,06,26,14,15,33.50
2021,06,26,14,16,33.40
2021,06,26,14,17,33.30
2021,06,26,14,18,33.20
2021,06,26,14,19,33.10
2021,06,26,14,20,33.20
2021,06,26,14,21,33.30
2021,06,26,14,22,33.50
2021,06,26,14,23,33.60
2021,06,26,14,24,33.70
2021,06,26,14,25,33.70
2021,06,26,14,26,33.60
2021,06,26,14,27,33.60
2021,06,26,14,28,33.70
2021,06,26,14,29,33.80
2021,06,26,14,30,34.00
2021,06,26,14,31,34.20
2021,06,26,14,32,34.30
2021,06,26,14,33,34.40
2021,06,26,14,34,34.50
2021,06,26,14,35,34.60
2021,06,26,14,36,34.70
2021,06,26,14,37,34.80
2021,06,26,14,38,34.90
2021,06,26,14,39,34.90
2021,06,26,14,40,35.00
2021,06,26,14,41,35.10
2021,06,26,14,42,35.20
2021,06,26,14,43,35.10
2021,06,26,14,44,35.00
2021,06,26,14,45,35.00
2021,06,26,14,46,35.00
2021,06,26,14,47,35.10
2021,06,26,14,48,35.10
2021,06,26,14,49,35.10
2021,06,26,14,50,35.10
2021,06,26,14,51,35.10
2021,06,26,14,52,35.10
2021,06,26,14,53,35.30
2021,06,26,14,54,35.40
2021,06,26,14,55,35.50
2021,06,26,14,56,35.60
2021,06,26,14,57,35.60
2021,06,26,14,58,35.70
2021,06,26,14,59,35.80
2021,06,26,15,00,35.80
2021,06,26,15,01,35.80
2021,06,26,15,02,35.80
2021,06,26,15,03,35.80
2021,06,26,15,04,35.70
2021,06,26,15,05,35.60
2021,06,26,15,06,35.50
2021,06,26,15,07,35.40
2021,06,26,15,08,35.50
2021,06,26,15,09,35.60
2021,06,26,15,10,35.60
2021,06,26,15,11,35.60
2021,06,26,15,12,35.60
2021,06,26,15,13,35.60
2021,06,26,15,14,35.50
2021,06,26,15,15,35.50
2021,06,26,15,16,35.40
2021,06,26,15,17,35.40
2021,06,26,15,18,35.40
2021,06,26,15,19,35.30
2021,06,26,15,20,35.30
2021,06,26,15,21,35.30
2021,06,26,15,22,35.30
2021,06,26,15,23,35.30
2021,06,26,15,24,35.40
2021,06,26,15,25,35.50
2021,06,26,15,26,35.60
2021,06,26,15,27,35.80
2021,06,26,15,28,35.80
2021,06,26,15,29,35.70
2021,06,26,15,30,35.60
2021,06,26,15,31,35.50
2021,06,26,15,32,35.50
2021,06,26,15,33,35.40
2021,06,26,15,34,35.50
2021,06,26,15,35,35.60
2021,06,26,15,36,35.60
2021,06,26,15,37,35.60
2021,06,26,15,38,35.60
2021,06,26,15,39,35.50
2021,06,26,15,40,35.40
2021,06,26,15,41,35.40
2021,06,26,15,42,35.50
2021,06,26,15,43,35.60
2021,06,26,15,44,35.60
2021,06,26,15,45,35.70
2021,06,26,15,46,35.80
2021,06,26,15,47,36.00
2021,06,26,15,48,36.10
2021,06,26,15,49,36.20
2021,06,26,15,50,36.30
2021,06,26,15,51,36.30
2021,06,26,15,52,36.30
2021,06,26,15,53,36.40
2021,06,26,15,54,36.60
2021,06,26,15,55,36.70
2021,06,26,15,56,36.70
2021,06,26,15,57,36.60
2021,06,26,15,58,36.40
2021,06,26,15,59,36.30
2021,06,26,16,00,36.30
2021,06,26,16,01,36.40
2021,06,26,16,02,36.50
2021,06,26,16,03,36.60
2021,06,26,16,04,36.60
2021,06,26,16,05,36.60
2021,06,26,16,06,36.60
2021,06,26,16,07,36.60
2021,06,26,16,08,36.40
2021,06,26,16,09,36.10
2021,06,26,16,10,35.80
2021,06,26,16,11,35.70
2021,06,26,16,12,35.50
2021,06,26,16,13,35.30
2021,06,26,16,14,35.10
2021,06,26,16,15,34.90
2021,06,26,16,16,34.70
2021,06,26,16,17,34.50
2021,06,26,16,18,34.30
2021,06,26,16,19,34.20
2021,06,26,16,20,34.20
2021,06,26,16,21,34.10
2021,06,26,16,22,34.10
2021,06,26,16,23,34.10
2021,06,26,16,24,34.00
2021,06,26,16,25,34.00
2021,06,26,16,26,34.00
2021,06,26,16,27,33.90
2021,06,26,16,28,33.90
2021,06,26,16,29,33.80
2021,06,26,16,30,33.70
2021,06,26,16,31,33.60
2021,06,26,16,32,33.50
2021,06,26,16,33,33.50
2021,06,26,16,34,33.40
2021,06,26,16,35,33.20
2021,06,26,16,36,33.00
2021,06,26,16,37,32.90
2021,06,26,16,38,32.80
2021,06,26,16,39,32.80
2021,06,26,16,40,32.80
2021,06,26,16,41,32.80
2021,06,26,16,42,32.70
2021,06,26,16,43,32.70
2021,06,26,16,44,32.60
2021,06,26,16,45,32.70
2021,06,26,16,46,32.70
2021,06,26,16,47,32.80
2021,06,26,16,48,32.80
2021,06,26,16,49,32.90
2021,06,26,16,50,33.00
2021,06,26,16,51,33.10
2021,06,26,16,52,33.10
2021,06,26,16,53,33.10
2021,06,26,16,54,33.10
2021,06,26,16,55,33.20
2021,06,26,16,56,33.10
2021,06,26,16,57,33.10
2021,06,26,16,58,33.00
2021,06,26,16,59,32.90
2021,06,26,17,00,32.90
2021,06,26,17,01,32.80
2021,06,26,17,02,32.80
2021,06,26,17,03,32.80
2021,06,26,17,04,32.90
2021,06,26,17,05,33.00
2021,06,26,17,06,33.00
2021,06,26,17,07,33.10
2021,06,26,17,08,33.10
2021,06,26,17,09,33.20
2021,06,26,17,10,33.40
2021,06,26,17,11,33.60
2021,06,26,17,12,33.70
2021,06,26,17,13,33.80
2021,06,26,17,14,34.00
2021,06,26,17,15,34.10
2021,06,26,17,16,34.10
2021,06,26,17,17,34.20
2021,06,26,17,18,34.20
2021,06,26,17,19,34.20